Theta_e
284 286 287 287 289 290 290 290 284 286 285 291 293 293 293 292 291 291 291 291 291 292 292 292 293 294 294 293 291 290 287 286 285 285 284 283 282 282 282 281 281 280 280 281
279 286 286 283 287 290 291 291 289 287 285 289 294 294 292 292 292 291 291 292 292 293 294 295 295 294 293 290 288 287 286 285 284 283 282 281 281 280 280 280 279 279 279 279
274 282 282 275 282 288 291 292 292 285 288 293 292 293 293 293 293 293 294 294 294 295 296 295 295 294 290 288 286 285 284 284 283 282 281 280 280 280 279 278 278 278 278 278
277 280 270 281 285 290 291 293 295 289 289 291 293 292 295 295 295 295 295 295 296 296 296 295 293 291 289 287 285 284 283 283 282 281 280 280 279 278 278 278 277 277 277 277
276 276 278 281 286 290 290 290 294 291 289 289 290 291 289 292 296 296 297 297 298 298 296 294 294 292 289 286 285 284 283 282 281 280 279 279 278 277 277 276 276 276 277 276
278 272 270 279 284 289 293 285 287 290 290 288 288 285 286 290 291 293 295 296 296 297 296 294 291 289 287 285 284 284 284 283 281 280 279 278 278 277 277 276 277 276 277 276
276 277 276 281 283 288 283 284 285 288 291 289 289 286 287 287 286 286 286 287 288 290 291 288 286 286 286 285 284 285 283 281 279 279 278 278 277 276 274 274 275 274 274 274
276 274 272 281 287 286 283 285 286 288 289 287 285 286 285 284 283 284 284 284 285 285 284 283 283 283 283 282 281 279 278 277 277 275 276 276 274 273 272 272 271 271 270 271
279 278 280 282 284 284 284 284 286 287 287 287 285 284 284 283 283 283 283 283 283 283 283 282 278 279 278 278 276 274 272 272 271 271 274 274 273 271 270 270 271 271 271 271
277 279 280 282 283 283 283 284 285 286 286 286 284 284 283 283 283 283 283 282 281 278 277 277 276 277 278 276 274 271 272 272 270 270 270 269 273 273 272 270 270 271 270 271
276 279 280 282 282 282 282 283 283 283 284 284 284 283 283 282 282 282 282 278 275 275 275 274 273 273 271 272 270 271 270 269 270 270 269 270 271 272 273 273 273 271 271 271
275 279 280 280 281 282 281 281 282 282 282 282 283 282 281 280 279 278 276 274 274 273 272 272 270 270 270 266 268 268 271 271 270 270 269 270 270 271 277 279 279 279 280 275
278 279 280 280 280 279 280 280 280 280 281 280 277 278 277 278 276 272 271 271 271 270 268 267 267 268 268 266 264 266 270 271 269 269 269 270 269 270 271 275 279 281 282 282
274 276 279 277 277 274 274 272 270 268 269 270 269 268 267 268 267 267 268 267 266 263 264 263 263 266 267 263 262 263 266 267 267 270 268 267 269 270 269 270 271 273 275 280
273 272 274 273 273 273 272 272 272 272 269 269 265 263 264 265 265 265 264 263 263 260 261 262 263 266 263 262 263 264 265 265 263 266 264 267 267 267 269 269 269 271 268 271
270 268 271 271 269 269 268 269 269 269 266 264 264 265 263 261 261 260 261 260 265 267 265 263 262 264 263 261 261 261 260 263 264 264 265 265 267 268 269 269 269 269 269 269
270 271 269 268 265 265 265 262 263 263 262 262 262 260 260 262 261 265 265 260 258 259 259 258 262 263 261 259 257 261 261 262 263 263 264 266 267 268 268 269 269 269 269 270
261 262 260 262 263 262 263 259 258 259 260 259 259 259 262 262 259 262 263 261 261 262 259 259 259 261 262 261 261 261 260 261 261 261 265 264 265 267 267 267 267 267 268 267
258 261 260 263 258 260 259 260 258 256 257 257 260 262 257 257 257 258 260 262 263 263 266 262 267 264 262 262 266 258 260 261 262 263 263 264 264 265 265 265 265 266 266 266
259 257 258 258 257 258 259 257 256 258 257 257 258 262 263 263 262 261 259 258 258 261 261 262 261 261 262 262 263 260 259 260 261 262 263 263 263 264 264 264 265 265 265 265
258 258 260 260 260 260 259 257 259 262 261 260 262 260 258 260 261 257 258 259 262 261 261 262 261 263 262 261 260 258 257 258 259 260 261 262 263 263 264 264 264 264 265 263
258 260 261 262 262 262 261 261 261 261 261 261 260 259 260 261 261 260 256 259 262 263 263 263 263 262 264 264 263 260 259 258 259 260 260 261 262 263 263 263 263 263 262 261
262 261 262 261 260 257 256 259 259 257 259 257 257 258 259 259 258 259 262 261 263 263 263 262 263 265 266 264 262 260 259 258 259 260 260 261 261 262 262 263 263 262 260 260
262 261 258 255 256 259 259 258 257 257 254 255 255 255 255 260 261 254 258 262 262 262 262 262 264 267 264 261 261 260 260 260 260 260 261 261 261 261 261 262 261 261 260 260
259 256 256 257 259 258 256 257 256 257 257 256 256 257 256 255 256 261 261 261 262 262 261 262 265 264 261 261 260 260 260 260 260 261 260 260 261 260 261 261 261 260 260 260
257 257 256 256 256 257 258 258 257 257 255 257 255 256 260 261 261 261 261 261 261 261 261 261 261 260 260 260 259 259 259 259 260 260 260 260 260 261 261 260 259 258 259 259
258 259 259 259 258 258 257 257 257 257 258 257 259 259 260 260 260 260 260 260 260 260 260 260 260 260 260 259 259 258 258 259 259 259 259 259 259 260 260 259 257 258 258 258
Wind_Speed
2 3 3 5 5 3 0 1 3 4 3 4 6 8 9 10 10 10 9 9 9 10 10 10 10 8 6 5 6 5 6 5 5 5 5 6 6 6 5 5 5 5 5 5
3 3 3 3 7 0 2 2 1 2 2 1 5 8 7 10 10 9 9 9 10 10 11 10 10 9 7 6 6 6 6 6 6 6 6 5 5 5 5 5 5 5 5 6
4 5 7 5 5 5 2 0 2 2 2 3 4 6 9 9 10 10 10 12 12 11 10 8 9 8 8 6 6 6 6 6 6 6 6 6 5 5 5 6 5 5 5 5
4 4 3 4 4 3 4 2 3 3 2 4 4 4 5 4 7 8 10 11 9 8 7 6 5 6 6 7 7 6 6 6 6 6 6 6 6 6 5 4 5 5 6 6
2 3 5 2 4 2 2 2 1 4 2 5 4 5 6 4 4 6 8 8 8 8 6 6 8 7 7 6 5 5 6 6 7 6 6 6 6 6 5 4 5 6 5 7
3 1 3 3 5 6 5 1 3 3 3 4 3 3 2 3 3 5 5 4 6 6 5 7 6 7 7 7 6 8 8 7 6 6 6 7 7 6 4 4 6 5 7 7
3 3 6 5 8 6 2 1 5 4 2 4 2 1 4 4 6 4 5 5 4 5 5 4 6 6 7 6 9 3 4 6 6 7 8 7 6 4 4 5 5 5 6 4
0 2 4 5 4 3 2 5 3 3 2 6 7 6 6 6 6 7 7 7 7 6 5 4 4 4 4 6 4 5 5 5 6 6 5 4 5 4 3 4 4 5 4 5
4 3 2 4 2 3 3 3 4 2 4 7 7 6 6 5 5 6 6 5 3 5 4 3 3 2 3 4 4 3 3 4 4 3 4 4 5 3 2 4 5 6 6 6
3 4 4 6 4 5 4 3 4 6 6 6 9 7 6 6 6 5 4 6 4 5 4 3 3 2 4 2 2 3 4 4 2 3 3 3 3 4 5 5 6 7 6 8
1 2 1 6 6 5 6 8 10 9 7 8 8 6 5 5 6 5 4 3 2 2 2 3 4 4 4 3 3 4 3 3 4 3 4 4 6 6 7 7 9 7 8 7
2 3 1 2 5 7 8 7 8 9 9 8 6 7 5 5 4 3 3 3 4 4 5 5 5 5 5 3 3 3 5 3 3 3 3 4 5 8 16 22 21 21 23 13
2 3 3 4 5 5 5 6 8 8 7 6 5 4 3 2 3 3 4 4 5 5 5 5 6 7 6 4 3 4 6 5 3 4 4 5 4 7 10 7 16 23 25 23
3 3 5 4 1 4 5 4 4 3 4 5 3 5 4 3 4 5 5 5 5 4 4 5 6 7 6 6 4 4 4 5 4 4 3 3 5 7 6 7 9 8 11 18
7 3 1 2 2 4 2 4 6 7 5 6 5 4 4 4 4 5 6 6 5 1 3 4 4 6 5 4 4 5 3 3 3 4 3 5 4 5 7 7 8 9 4 8
5 5 6 7 5 6 6 8 5 3 4 5 5 7 6 4 4 4 4 3 4 6 7 6 5 6 6 6 6 4 3 6 5 4 5 4 5 6 7 7 8 8 7 8
4 4 5 5 4 2 2 1 1 2 2 4 4 5 4 4 2 5 6 4 4 5 4 2 5 7 6 5 4 4 4 4 6 4 5 5 6 7 7 7 8 8 8 7
1 2 1 2 2 2 4 4 3 2 2 5 4 4 6 7 3 6 7 7 4 4 4 4 5 5 6 5 5 4 3 4 4 5 5 5 6 6 6 7 8 9 8 7
2 3 4 5 3 3 2 3 4 3 4 4 5 6 3 3 4 5 6 6 7 5 8 8 12 9 7 7 7 3 4 6 6 6 5 7 7 7 7 8 8 8 8 7
4 4 5 4 4 4 4 3 3 3 3 3 3 6 8 8 7 6 5 4 1 3 7 9 7 6 7 8 8 4 5 6 8 8 7 7 7 8 8 9 9 8 8 7
5 4 6 5 5 4 4 3 4 7 7 5 7 6 5 7 7 5 5 4 7 6 8 9 7 7 6 7 6 4 5 7 7 7 8 8 8 8 8 8 8 8 8 7
3 4 5 4 4 5 6 5 7 6 7 7 6 5 6 6 7 6 3 1 7 10 8 7 7 9 10 12 6 6 7 7 7 7 8 8 8 9 9 8 8 8 7 6
4 3 5 7 6 4 5 7 6 5 6 6 6 6 6 4 3 4 8 6 7 10 8 7 11 14 15 8 7 6 7 7 7 7 7 8 8 9 9 9 8 7 6 6
6 7 5 4 4 6 9 7 6 6 4 5 4 4 3 6 6 2 4 9 11 11 8 8 12 16 15 7 8 8 9 9 8 8 8 10 8 8 8 9 8 7 6 5
5 3 4 5 7 5 5 6 5 4 5 4 5 5 5 2 2 8 6 7 10 9 9 11 15 15 9 9 9 10 10 9 9 10 9 9 9 9 8 8 7 6 4 4
4 3 2 4 2 3 3 4 3 3 3 4 3 4 5 5 5 6 7 9 8 10 9 9 9 10 10 10 10 10 10 10 10 9 11 10 9 9 8 8 5 2 1 2
4 6 4 2 2 4 4 3 5 6 6 5 6 6 8 8 8 8 9 9 9 9 9 9 9 10 10 10 10 10 10 9 10 10 9 9 8 8 8 7 3 2 1 2
Wind_Direction
298 317 24 315 337 315 236 4 77 316 79 169 163 154 149 134 129 131 137 147 154 149 149 158 161 165 150 150 164 160 161 162 163 147 141 160 150 147 154 148 150 144 152 157
293 242 184 285 291 232 295 353 21 84 73 358 109 107 130 147 147 151 154 157 155 155 160 165 176 176 175 168 165 167 168 174 156 157 158 169 162 160 155 155 155 158 182 182
292 342 349 346 242 184 138 154 65 35 30 131 110 139 158 157 161 163 164 166 171 171 172 183 190 176 182 167 161 175 173 173 171 161 175 187 175 166 177 177 170 194 197 194
296 0 10 266 333 304 139 138 70 320 41 57 126 88 104 142 154 161 166 171 171 172 177 188 173 170 153 166 174 179 186 180 171 178 190 187 184 193 193 180 193 203 208 204
321 256 287 349 353 38 133 141 148 280 66 61 95 91 41 20 160 168 167 167 173 175 175 164 181 173 162 162 168 178 199 197 196 187 191 190 201 202 198 191 207 210 207 209
310 336 206 278 315 347 301 314 10 302 161 142 148 95 226 14 41 84 91 119 165 168 161 168 160 141 154 178 176 205 208 202 193 194 199 204 205 200 191 204 214 208 222 214
292 286 292 317 302 308 95 317 330 334 94 149 97 43 100 67 47 50 53 60 87 114 144 144 144 149 184 180 211 208 173 190 200 202 207 209 202 186 191 209 216 221 228 224
196 299 309 342 315 26 320 310 325 340 59 92 103 85 75 62 53 56 53 43 41 76 68 58 102 138 191 218 210 192 182 197 207 209 209 191 191 205 205 191 211 232 233 250
178 229 305 304 322 323 288 284 338 31 67 114 109 83 80 80 66 63 67 66 50 83 88 58 42 135 187 245 199 182 176 214 216 210 209 196 200 198 206 196 217 234 229 240
57 335 347 337 351 17 353 45 27 54 65 70 99 88 94 84 69 64 47 44 36 47 44 354 346 320 241 286 223 164 215 228 222 220 228 224 221 209 219 218 224 232 231 239
325 316 306 38 24 356 37 51 62 55 60 82 89 78 94 80 69 56 49 19 24 36 13 330 339 301 289 265 174 217 233 235 233 224 225 241 234 228 231 237 217 224 233 225
239 327 51 18 10 10 49 42 42 73 60 37 61 91 88 78 49 44 38 355 17 11 4 343 341 318 322 313 214 218 260 254 240 234 231 239 246 272 248 251 248 249 253 231
307 316 62 73 30 350 40 33 43 63 55 80 32 34 38 77 44 355 24 17 13 348 327 324 328 330 316 319 225 212 241 257 252 240 240 245 241 248 277 276 259 258 255 251
1 332 41 19 53 341 55 40 46 62 44 36 8 16 14 35 10 19 4 313 303 318 334 345 341 315 315 334 328 291 282 280 270 273 257 257 253 257 251 263 280 280 256 255
4 7 268 130 48 31 33 45 56 46 9 17 19 36 17 16 8 337 332 332 311 280 284 302 331 323 330 339 346 328 305 284 261 269 250 252 255 251 256 259 260 270 282 272
336 25 46 65 29 22 28 28 62 6 360 353 4 3 339 308 294 294 299 320 28 333 328 340 334 314 331 350 342 321 304 285 273 268 276 266 255 258 265 257 260 260 257 252
62 22 17 33 42 6 50 295 339 332 328 10 320 298 309 324 317 353 346 344 319 289 297 337 310 321 333 330 317 296 296 299 294 292 271 264 259 257 256 259 260 259 256 249
107 134 183 158 140 68 31 17 6 353 18 288 306 341 14 23 331 311 314 322 340 31 24 322 298 304 320 318 311 294 290 289 285 275 281 270 264 259 261 263 260 262 263 246
28 55 37 61 47 86 61 12 2 320 336 337 356 0 311 302 306 307 330 360 22 20 341 331 329 333 318 318 321 309 300 304 302 288 265 274 273 261 258 258 260 260 259 253
40 53 69 65 61 61 38 356 330 15 331 0 349 14 7 357 350 346 350 4 252 254 303 304 316 313 310 312 319 304 301 294 290 289 287 278 272 273 268 262 263 265 260 249
63 45 56 71 56 38 36 1 11 25 356 19 32 12 337 320 338 342 23 29 323 312 310 308 313 315 319 309 299 294 294 295 292 289 289 287 286 278 272 267 262 260 260 246
39 52 47 53 76 61 19 19 33 23 25 21 14 6 356 354 347 346 233 169 324 329 330 329 326 322 318 314 306 299 295 289 286 287 285 284 283 285 282 278 269 264 258 248
65 65 63 49 45 25 1 25 15 18 21 16 11 5 357 313 302 2 347 329 331 325 329 318 316 322 331 326 314 302 299 297 296 294 291 290 290 290 291 288 282 268 256 242
65 52 49 13 28 43 32 348 354 357 357 342 347 323 344 352 336 268 285 309 316 324 323 314 327 335 337 324 323 321 316 311 305 301 297 293 291 289 286 286 281 270 256 234
67 54 43 40 48 26 352 338 331 349 350 345 331 329 324 291 195 316 317 314 314 328 328 328 335 337 334 330 327 325 320 316 314 311 308 304 303 298 294 289 284 274 244 212
48 62 71 53 40 336 329 338 344 318 325 343 310 326 335 336 331 331 330 330 330 331 329 327 327 325 324 322 320 318 316 316 317 316 315 311 309 310 308 303 286 259 222 186
51 42 24 16 11 0 346 350 5 356 354 349 340 339 341 339 339 339 335 333 330 326 323 324 324 324 321 321 318 316 316 313 315 316 316 314 314 314 313 304 287 276 244 199